W0WC Weather Reports


time (UTC)temp
C
wind
direction
speed
KPH
gust
KPH
rain 1hr
cm
rain 24hr
cm
rain mn
cm
humidity
%
barometer
mb
20260510185815 21 333 6.4 6.4 0.00 0.00 0.00 41 1020.5
20260510185313 21 16 12.9 16.1 0.00 0.00 0.00 40 1020.3
20260510184810 21 3 4.8 6.4 0.00 0.00 0.00 39 1020.5
20260510184307 21 53 3.2 4.8 0.00 0.00 0.00 41 1020.5
20260510183807 21 356 8.0 11.3 0.00 0.00 0.00 38 1020.4
20260510183302 21 29 9.7 14.5 0.00 0.00 0.00 40 1020.5
20260510182758 21 13 3.2 3.2 0.00 0.00 0.00 39 1020.5
20260510182254 21 38 6.4 11.3 0.00 0.00 0.00 39 1020.6
20260510181751 21 41 6.4 6.4 0.00 0.00 0.00 41 1020.6
20260510181248 21 37 14.5 17.7 0.00 0.00 0.00 39 1020.6
20260510180744 21 64 8.0 12.9 0.00 0.00 0.00 39 1020.5
20260510180242 21 15 9.7 14.5 0.00 0.00 0.00 40 1020.6
20260510175738 21 15 6.4 6.4 0.00 0.00 0.00 39 1020.5
20260510175234 20 23 6.4 9.7 0.00 0.00 0.00 41 1020.3
20260510174731 20 10 9.7 14.5 0.00 0.00 0.00 40 1020.2
20260510174228 20 11 9.7 12.9 0.00 0.00 0.00 40 1020.4
20260510173725 20 17 8.0 11.3 0.00 0.00 0.00 40 1020.2
20260510173220 20 39 9.7 12.9 0.00 0.00 0.00 42 1020.2
20260510172715 21 33 11.3 16.1 0.00 0.00 0.00 40 1020.1
20260510172212 20 47 9.7 12.9 0.00 0.00 0.00 41 1020.3
20260510171709 20 348 9.7 12.9 0.00 0.00 0.00 41 1020.2
20260510171206 20 36 14.5 20.9 0.00 0.00 0.00 40 1020.0
20260510170703 20 29 4.8 6.4 0.00 0.00 0.00 42 1019.9
20260510170159 20 42 1.6 1.6 0.00 0.00 0.00 42 1019.8
20260510165655 20 11 4.8 11.3 0.00 0.00 0.00 43 1020.0
20260510165151 20 11 9.7 12.9 0.00 0.00 0.00 43 1020.1
20260510164649 20 356 6.4 11.3 0.00 0.00 0.00 43 1020.1
20260510164146 20 26 9.7 14.5 0.00 0.00 0.00 44 1020.1
20260510163641 20 359 6.4 9.7 0.00 0.00 0.00 42 1020.0
20260510163138 20 29 8.0 11.3 0.00 0.00 0.00 43 1019.8
20260510162637 20 28 4.8 6.4 0.00 0.00 0.00 43 1019.8
20260510162134 19 5 8.0 12.9 0.00 0.00 0.00 44 1019.8
20260510161630 19 47 9.7 12.9 0.00 0.00 0.00 45 1019.8
20260510161127 18 39 6.4 6.4 0.00 0.00 0.00 46 1019.5
20260510160624 18 38 11.3 16.1 0.00 0.00 0.00 47 1019.6
20260510160124 18 3 14.5 22.5 0.00 0.00 0.00 48 1019.4
20260510155620 18 18 6.4 6.4 0.00 0.00 0.00 50 1019.4
20260510155116 18 20 8.0 11.3 0.00 0.00 0.00 50 1019.5
20260510154612 18 36 6.4 9.7 0.00 0.00 0.00 51 1019.5
20260510154108 18 23 12.9 22.5 0.00 0.00 0.00 51 1019.6
20260510153603 17 10 8.0 11.3 0.00 0.00 0.00 54 1019.1
20260510153100 17 35 8.0 11.3 0.00 0.00 0.00 54 1019.0
20260510152557 17 40 3.2 3.2 0.00 0.00 0.00 54 1018.8
20260510152053 17 22 16.1 20.9 0.00 0.00 0.00 54 1018.8
20260510151550 17 342 4.8 6.4 0.00 0.00 0.00 56 1018.8
20260510151048 17 88 8.0 12.9 0.00 0.00 0.00 58 1018.7
20260510150547 17 27 9.7 14.5 0.00 0.00 0.00 60 1018.6
20260510150044 17 12 11.3 14.5 0.00 0.00 0.00 59 1018.9
20260510145541 17 334 6.4 9.7 0.00 0.00 0.00 61 1018.7
20260510145037 16 30 6.4 12.9 0.00 0.00 0.00 64 1018.8
20260510144534 16 46 14.5 20.9 0.00 0.00 0.00 64 1018.9
20260510144030 16 19 9.7 12.9 0.00 0.00 0.00 67 1019.0
20260510143525 16 349 8.0 14.5 0.00 0.00 0.00 68 1019.0
20260510143022 16 41 16.1 20.9 0.00 0.00 0.00 69 1019.0
20260510142519 16 1 14.5 17.7 0.00 0.00 0.00 69 1019.1
20260510142015 16 344 6.4 11.3 0.00 0.00 0.00 70 1019.4
20260510141512 16 10 4.8 4.8 0.00 0.00 0.00 70 1019.4
20260510141010 16 16 3.2 4.8 0.00 0.00 0.00 71 1019.2
20260510140506 16 36 8.0 9.7 0.00 0.00 0.00 70 1019.1
20260510140005 16 37 8.0 9.7 0.00 0.00 0.00 70 1019.0
20260510135501 16 33 9.7 14.5 0.00 0.00 0.00 69 1018.9
20260510134958 16 23 3.2 4.8 0.00 0.00 0.00 69 1018.9
20260510134455 16 30 3.2 4.8 0.00 0.00 0.00 70 1018.9
20260510133952 16 13 1.6 3.2 0.00 0.00 0.00 70 1018.5
20260510133448 16 17 9.7 11.3 0.00 0.00 0.00 70 1018.7
20260510132944 16 358 6.4 9.7 0.00 0.00 0.00 70 1018.5
20260510132441 16 7 1.6 3.2 0.00 0.00 0.00 72 1018.3
20260510131938 16 18 4.8 11.3 0.00 0.00 0.00 72 1018.3
20260510131435 16 57 1.6 3.2 0.00 0.00 0.00 72 1018.4
20260510130932 16 356 4.8 6.4 0.00 0.00 0.00 73 1018.4
20260510130429 16 78 6.4 6.4 0.00 0.00 0.00 73 1018.3
20260510125926 16 19 4.8 4.8 0.00 0.00 0.00 74 1017.9
20260510125422 16 77 6.4 12.9 0.00 0.00 0.00 73 1017.8
20260510124919 16 19 6.4 9.7 0.00 0.00 0.00 73 1018.0
20260510124416 16 330 6.4 9.7 0.00 0.00 0.00 73 1017.6
20260510123912 16 14 3.2 3.2 0.00 0.00 0.00 74 1017.5
20260510123407 16 11 4.8 12.9 0.00 0.00 0.00 75 1017.4
20260510122904 16 20 3.2 6.4 0.00 0.00 0.00 75 1017.3
20260510122359 16 21 3.2 6.4 0.00 0.00 0.00 76 1017.3
20260510121855 15 21 6.4 9.7 0.00 0.00 0.00 76 1017.2
20260510121353 15 25 1.6 3.2 0.00 0.00 0.00 76 1017.0
20260510120850 15 9 6.4 9.7 0.00 0.00 0.00 76 1017.0
20260510120348 15 20 4.8 6.4 0.00 0.00 0.00 76 1016.7
20260510115849 15 66 1.6 1.6 0.00 0.00 0.00 77 1016.5
20260510115346 15 18 1.6 1.6 0.00 0.00 0.00 77 1016.5
20260510114842 15 22 1.6 1.6 0.00 0.00 0.00 76 1016.3
20260510114339 15 22 4.8 9.7 0.00 0.00 0.00 76 1016.2
20260510113839 15 10 4.8 6.4 0.00 0.00 0.00 76 1016.0
20260510113336 15 25 3.2 6.4 0.00 0.00 0.00 76 1016.0
20260510112833 15 29 1.6 3.2 0.00 0.00 0.00 75 1015.9
20260510112330 16 12 1.6 1.6 0.00 0.00 0.00 75 1016.0
20260510111825 16 14 6.4 6.4 0.00 0.00 0.00 75 1015.9
20260510111323 16 14 6.4 6.4 0.00 0.00 0.00 75 1016.1
20260510110822 16 21 1.6 3.2 0.00 0.00 0.00 75 1015.9
20260510110321 16 27 3.2 4.8 0.00 0.00 0.00 75 1015.4
20260510105816 16 45 3.2 4.8 0.00 0.00 0.00 74 1015.7
20260510105316 16 11 8.0 11.3 0.00 0.00 0.00 75 1015.5
20260510104812 16 10 4.8 6.4 0.00 0.00 0.00 74 1015.4
20260510104310 16 346 3.2 3.2 0.00 0.00 0.00 74 1015.3
20260510103806 16 31 3.2 3.2 0.00 0.00 0.00 74 1015.3
20260510103303 16 8 3.2 3.2 0.00 0.00 0.00 74 1015.2
20260510102804 16 17 1.6 3.2 0.00 0.00 0.00 75 1015.2
20260510102259 16 9 1.6 1.6 0.00 0.00 0.00 75 1015.3
20260510101757 16 12 3.2 3.2 0.00 0.00 0.00 76 1015.4
20260510101255 16 18 0.0 0.0 0.00 0.00 0.00 74 1015.3
20260510100751 16 14 0.0 0.0 0.00 0.00 0.00 75 1015.1
20260510100249 16 15 0.0 0.0 0.00 0.00 0.00 74 1015.3
20260510095744 16 23 0.0 0.0 0.00 0.00 0.00 73 1015.0
20260510095239 16 30 0.0 1.6 0.00 0.00 0.00 73 1015.1
20260510094738 16 12 0.0 0.0 0.00 0.00 0.00 72 1015.2
20260510094234 16 25 0.0 0.0 0.00 0.00 0.00 72 1015.1
20260510093730 16 10 3.2 3.2 0.00 0.00 0.00 72 1015.1
20260510093228 17 13 0.0 0.0 0.00 0.00 0.00 71 1014.9
20260510092724 17 17 0.0 0.0 0.00 0.00 0.00 71 1014.7
20260510092219 17 17 0.0 0.0 0.00 0.00 0.00 68 1014.6
20260510091715 17 19 1.6 1.6 0.00 0.00 0.00 68 1014.1
20260510091212 17 49 1.6 1.6 0.00 0.00 0.00 68 1014.2
20260510090708 17 21 0.0 0.0 0.00 0.00 0.00 68 1013.9
20260510090205 17 19 0.0 0.0 0.00 0.00 0.00 68 1014.2
20260510085700 17 19 0.0 0.0 0.00 0.00 0.00 69 1014.0
20260510085156 17 22 0.0 0.0 0.00 0.00 0.00 69 1013.9
20260510084652 17 19 0.0 0.0 0.00 0.00 0.00 68 1013.9
20260510084149 17 23 0.0 0.0 0.00 0.00 0.00 68 1013.7
20260510083646 17 26 0.0 0.0 0.00 0.00 0.00 68 1013.8
20260510083143 17 37 0.0 0.0 0.00 0.00 0.00 68 1013.9
20260510082639 17 23 0.0 0.0 0.00 0.00 0.00 68 1013.6
20260510082134 17 10 0.0 0.0 0.00 0.00 0.00 68 1013.8
20260510081629 17 15 0.0 0.0 0.00 0.00 0.00 67 1013.8
20260510081126 18 19 0.0 0.0 0.00 0.00 0.00 66 1013.9
20260510080625 18 12 0.0 0.0 0.00 0.00 0.00 65 1013.8
20260510080121 18 14 0.0 0.0 0.00 0.00 0.00 64 1013.7
20260510075619 18 36 1.6 1.6 0.00 0.00 0.00 63 1013.8
20260510075116 18 24 0.0 0.0 0.00 0.00 0.00 62 1013.8
20260510074613 18 13 1.6 1.6 0.00 0.00 0.00 61 1014.0
20260510074109 19 7 1.6 1.6 0.00 0.00 0.00 60 1013.8
20260510073605 19 10 1.6 1.6 0.00 0.00 0.00 60 1013.7
20260510073102 19 15 0.0 0.0 0.00 0.00 0.00 60 1013.9
20260510072559 20 7 0.0 1.6 0.00 0.00 0.00 58 1013.9
20260510072054 20 323 3.2 3.2 0.00 0.00 0.00 58 1013.8
20260510071551 20 18 0.0 0.0 0.00 0.00 0.00 57 1013.9
20260510071049 20 14 1.6 1.6 0.00 0.00 0.00 57 1014.1
20260510070545 20 322 3.2 3.2 0.00 0.00 0.00 59 1014.1
20260510070043 20 1 3.2 4.8 0.00 0.00 0.00 60 1013.7
20260510065539 20 1 4.8 4.8 0.00 0.00 0.00 60 1013.5
20260510065035 20 9 3.2 3.2 0.00 0.00 0.00 58 1013.5
20260510064531 20 17 3.2 3.2 0.00 0.00 0.00 55 1013.5
20260510064028 20 314 6.4 9.7 0.00 0.00 0.00 55 1013.1
20260510063525 20 329 3.2 3.2 0.00 0.00 0.00 54 1012.7
20260510063022 20 352 3.2 3.2 0.00 0.00 0.00 54 1012.2
20260510062518 20 103 4.8 9.7 0.00 0.00 0.00 55 1012.6
20260510062013 20 115 3.2 4.8 0.00 0.00 0.00 54 1012.9
20260510061510 20 66 3.2 3.2 0.00 0.00 0.00 54 1012.9
20260510061007 20 66 1.6 3.2 0.00 0.00 0.00 56 1013.1
20260510060504 20 52 1.6 3.2 0.00 0.00 0.00 55 1013.3
20260510055959 20 42 1.6 1.6 0.00 0.00 0.00 54 1013.2
20260510055455 20 45 1.6 1.6 0.00 0.00 0.00 54 1013.1
20260510054954 20 37 0.0 0.0 0.00 0.00 0.00 54 1013.2
20260510054449 20 33 1.6 1.6 0.00 0.00 0.00 55 1013.5
20260510053944 20 17 0.0 0.0 0.00 0.00 0.00 56 1013.4
20260510053440 20 108 1.6 3.2 0.00 0.00 0.00 58 1013.4
20260510052936 20 341 1.6 1.6 0.00 0.00 0.00 58 1013.5
20260510052432 20 336 0.0 1.6 0.00 0.00 0.00 60 1013.5
20260510051928 19 319 1.6 1.6 0.00 0.00 0.00 60 1013.6
20260510051425 18 72 1.6 3.2 0.00 0.00 0.00 62 1013.9
20260510050921 18 12 0.0 0.0 0.00 0.00 0.00 65 1013.6
20260510050418 18 11 0.0 0.0 0.00 0.00 0.00 67 1013.6
20260510045915 18 3 0.0 0.0 0.00 0.00 0.00 66 1013.5
20260510045413 18 9 0.0 0.0 0.00 0.00 0.00 67 1013.7
20260510044909 18 10 0.0 0.0 0.00 0.00 0.00 66 1013.7
20260510044406 18 10 0.0 0.0 0.00 0.00 0.00 64 1013.4
20260510043903 19 10 0.0 0.0 0.00 0.00 0.00 63 1013.5
20260510043358 19 10 0.0 0.0 0.00 0.00 0.00 60 1013.4
20260510042857 19 7 0.0 0.0 0.00 0.00 0.00 61 1013.3
20260510042352 19 4 0.0 0.0 0.00 0.00 0.00 62 1013.4
20260510041848 19 27 0.0 1.6 0.00 0.00 0.00 63 1013.4
20260510041346 18 24 0.0 0.0 0.00 0.00 0.00 63 1013.3
20260510040843 18 24 0.0 0.0 0.00 0.00 0.00 64 1013.4
20260510040340 18 26 0.0 0.0 0.00 0.00 0.00 64 1013.4
20260510035835 18 14 0.0 0.0 0.00 0.03 0.03 65 1013.5
20260510035331 18 20 0.0 0.0 0.00 0.03 0.03 66 1013.4
20260510034827 18 22 0.0 0.0 0.00 0.03 0.03 66 1013.3
20260510034325 18 17 0.0 0.0 0.00 0.03 0.03 66 1013.2
20260510033821 18 0 0.0 0.0 0.00 0.03 0.03 67 1013.1
20260510033319 18 26 0.0 0.0 0.00 0.03 0.03 67 1012.9
20260510032815 18 14 0.0 0.0 0.00 0.03 0.03 66 1012.9
20260510032312 18 2 0.0 0.0 0.00 0.03 0.03 66 1012.7
20260510031807 18 19 0.0 0.0 0.00 0.03 0.03 65 1012.8
20260510031304 18 19 0.0 0.0 0.00 0.03 0.03 66 1012.7
20260510030803 18 17 0.0 0.0 0.00 0.03 0.03 65 1012.5
20260510030300 18 16 0.0 0.0 0.00 0.03 0.03 63 1012.7
20260510025757 19 13 0.0 0.0 0.00 0.03 0.03 62 1012.6
20260510025255 19 17 0.0 0.0 0.00 0.03 0.03 61 1012.5
20260510024751 19 19 0.0 0.0 0.00 0.03 0.03 61 1012.3
20260510024248 19 17 0.0 0.0 0.00 0.03 0.03 62 1012.4
20260510023744 19 10 0.0 0.0 0.00 0.03 0.03 61 1012.3
20260510023241 20 9 0.0 0.0 0.00 0.03 0.03 60 1012.2
20260510022737 20 354 0.0 0.0 0.00 0.03 0.03 59 1012.1
20260510022237 20 352 0.0 0.0 0.00 0.03 0.03 59 1012.1
20260510021732 19 7 0.0 0.0 0.00 0.03 0.03 60 1011.6
20260510021230 20 14 0.0 0.0 0.00 0.03 0.03 61 1011.7
20260510020730 20 10 0.0 0.0 0.00 0.03 0.03 60 1011.6
20260510020225 20 9 0.0 0.0 0.00 0.03 0.03 58 1011.4
20260510015721 21 9 0.0 0.0 0.00 0.03 0.03 55 1011.3
20260510015218 21 358 0.0 0.0 0.00 0.03 0.03 55 1011.3
20260510014713 21 352 0.0 0.0 0.00 0.03 0.03 55 1011.1
20260510014211 21 359 0.0 0.0 0.00 0.03 0.03 54 1011.0
20260510013706 21 5 0.0 0.0 0.00 0.03 0.03 54 1010.7
20260510013202 21 0 0.0 0.0 0.00 0.03 0.03 54 1010.9
20260510012701 22 9 0.0 0.0 0.00 0.03 0.03 51 1010.7
20260510012157 22 14 0.0 0.0 0.00 0.03 0.03 49 1010.7
20260510011652 22 14 0.0 0.0 0.00 0.03 0.03 49 1010.3
20260510011148 23 14 0.0 0.0 0.00 0.03 0.03 48 1010.3
20260510010644 23 14 0.0 0.0 0.00 0.03 0.03 46 1010.3
20260510010142 23 11 0.0 0.0 0.00 0.03 0.03 44 1010.2
20260510005637 24 19 0.0 0.0 0.00 0.03 0.03 44 1010.3
20260510005135 24 30 0.0 1.6 0.00 0.03 0.03 43 1010.3
20260510004633 25 359 0.0 0.0 0.00 0.03 0.03 43 1010.1
20260510004131 25 23 0.0 1.6 0.00 0.03 0.03 41 1010.3
20260510003627 25 332 3.2 3.2 0.00 0.03 0.03 40 1010.1
20260510003123 25 257 3.2 3.2 0.00 0.03 0.03 39 1010.1
20260510002617 26 123 4.8 6.4 0.00 0.03 0.03 38 1010.2
20260510002115 26 200 6.4 9.7 0.00 0.03 0.03 38 1010.2
20260510001612 26 214 4.8 6.4 0.00 0.03 0.03 37 1010.0
20260510001111 26 179 3.2 4.8 0.00 0.03 0.03 36 1010.1
20260510000610 26 103 1.6 3.2 0.00 0.03 0.03 34 1010.1
20260510000108 27 220 1.6 3.2 0.00 0.03 0.03 35 1010.3
20260509235604 27 180 4.8 4.8 0.00 0.03 0.03 34 1010.2
20260509235101 27 188 4.8 4.8 0.00 0.03 0.03 34 1010.1
20260509234557 27 6 0.0 0.0 0.00 0.03 0.03 35 1010.3
20260509234055 27 311 1.6 1.6 0.00 0.03 0.03 34 1010.1
20260509233552 28 221 4.8 6.4 0.00 0.03 0.03 31 1010.1
20260509233050 28 6 1.6 3.2 0.00 0.03 0.03 33 1010.2
20260509232546 28 359 0.0 0.0 0.00 0.03 0.03 32 1010.2
20260509232043 28 345 1.6 1.6 0.00 0.03 0.03 32 1010.3
20260509231539 28 18 0.0 0.0 0.00 0.03 0.03 30 1010.3
20260509231037 28 318 1.6 1.6 0.00 0.03 0.03 30 1010.4
20260509230533 28 13 1.6 3.2 0.00 0.03 0.03 31 1010.3
20260509230031 28 338 1.6 1.6 0.00 0.03 0.03 28 1010.2
20260509225526 28 38 0.0 0.0 0.00 0.03 0.03 30 1010.4
20260509225022 28 27 1.6 3.2 0.00 0.03 0.03 29 1010.4
20260509224518 28 26 0.0 1.6 0.00 0.03 0.03 29 1010.3
20260509224014 28 260 3.2 3.2 0.00 0.03 0.03 30 1010.3
20260509223511 29 323 4.8 6.4 0.00 0.03 0.03 30 1010.2
20260509223010 28 34 1.6 3.2 0.00 0.03 0.03 32 1010.2
20260509222505 28 166 9.7 11.3 0.00 0.03 0.03 30 1010.5
20260509222001 28 181 8.0 11.3 0.00 0.03 0.03 30 1010.3
20260509221457 29 220 6.4 6.4 0.00 0.03 0.03 31 1010.4
20260509220953 29 294 3.2 3.2 0.00 0.03 0.03 30 1010.3
20260509220449 28 200 3.2 4.8 0.00 0.03 0.03 30 1010.5
20260509215945 28 356 3.2 3.2 0.00 0.03 0.03 33 1010.5
20260509215440 28 288 1.6 1.6 0.00 0.03 0.03 30 1010.3
20260509214938 29 294 3.2 4.8 0.00 0.03 0.03 30 1010.4
20260509214435 29 193 4.8 4.8 0.00 0.03 0.03 30 1010.3
20260509213932 29 359 1.6 3.2 0.00 0.03 0.03 30 1010.4
20260509213428 30 266 6.4 9.7 0.00 0.03 0.03 30 1010.5
20260509212926 28 328 1.6 1.6 0.00 0.03 0.03 31 1010.2
20260509212423 28 316 3.2 3.2 0.00 0.03 0.03 31 1010.5
20260509211919 28 352 4.8 6.4 0.00 0.03 0.03 29 1010.5
20260509211415 28 69 1.6 1.6 0.00 0.03 0.03 32 1010.4
20260509210911 28 161 3.2 3.2 0.00 0.03 0.03 32 1010.7
20260509210409 28 200 11.3 14.5 0.00 0.03 0.03 33 1010.9
20260509205904 28 271 6.4 9.7 0.00 0.03 0.03 34 1010.9
20260509205403 28 239 4.8 4.8 0.00 0.03 0.03 32 1010.9
20260509204900 28 354 4.8 6.4 0.00 0.03 0.03 30 1011.0
20260509204356 28 211 6.4 9.7 0.00 0.03 0.03 33 1011.0
20260509203853 30 188 3.2 4.8 0.00 0.03 0.03 32 1011.0
20260509203349 28 315 1.6 1.6 0.00 0.03 0.03 33 1011.0
20260509202847 28 238 3.2 4.8 0.00 0.03 0.03 34 1011.1
20260509202342 28 319 6.4 6.4 0.00 0.03 0.03 32 1011.2
20260509201837 28 265 4.8 6.4 0.00 0.03 0.03 34 1011.3
20260509201328 28 32 3.2 6.4 0.00 0.03 0.03 37 1011.4
20260509200825 28 331 9.7 11.3 0.00 0.03 0.03 33 1011.3
20260509200320 28 137 3.2 4.8 0.00 0.03 0.03 34 1011.4
20260509195816 28 215 6.4 9.7 0.00 0.03 0.03 34 1011.4
20260509195311 28 163 9.7 12.9 0.00 0.03 0.03 33 1011.5
20260509194811 28 11 3.2 4.8 0.00 0.03 0.03 35 1011.2
20260509194307 28 263 3.2 3.2 0.00 0.03 0.03 35 1011.6
20260509193804 28 274 3.2 3.2 0.00 0.03 0.03 32 1011.5
20260509193304 28 4 6.4 9.7 0.00 0.03 0.03 35 1011.4
20260509192800 28 347 3.2 3.2 0.00 0.03 0.03 37 1011.5
20260509192256 28 187 6.4 11.3 0.00 0.03 0.03 36 1011.5
20260509191751 27 23 3.2 4.8 0.00 0.03 0.03 38 1011.4
20260509191248 27 358 1.6 3.2 0.00 0.03 0.03 36 1011.6
20260509190743 27 2 1.6 1.6 0.00 0.03 0.03 40 1011.6